TimePST,TemperatureF,Dew PointF,Humidity,Sea Level PressureIn,VisibilityMPH,Wind Direction,Wind SpeedMPH,Gust SpeedMPH,PrecipitationIn,Events,Conditions,WindDirDegrees,DateUTC
12:56 AM,52.0,46.9,83,29.89,10.0,SE,5.8,-,0.01,,Overcast,140,2012-12-12 08:56:00
1:56 AM,52.0,46.9,83,29.89,10.0,NW,4.6,-,0.00,,Overcast,310,2012-12-12 09:56:00
2:24 AM,51.8,48.2,88,29.88,5.0,SSE,5.8,-,0.00,Rain,Light Rain,160,2012-12-12 10:24:00
2:56 AM,51.1,48.9,92,29.87,10.0,SE,3.5,-,0.01,Rain,Light Rain,140,2012-12-12 10:56:00
3:33 AM,51.8,48.2,88,29.85,10.0,SSE,4.6,-,0.00,Rain,Light Rain,150,2012-12-12 11:33:00
3:47 AM,51.8,48.2,88,29.85,8.0,SSE,4.6,-,0.00,Rain,Light Rain,150,2012-12-12 11:47:00
3:56 AM,51.1,48.9,92,29.86,7.0,SSE,5.8,-,0.00,Rain,Light Rain,150,2012-12-12 11:56:00
4:27 AM,51.8,50.0,94,29.85,7.0,NNW,4.6,-,0.00,Rain,Light Rain,340,2012-12-12 12:27:00
4:56 AM,51.1,48.9,92,29.87,10.0,Variable,3.5,-,0.01,,Overcast,0,2012-12-12 12:56:00
5:15 AM,51.8,46.4,82,29.86,10.0,WNW,4.6,-,N/A,,Overcast,290,2012-12-12 13:15:00
5:56 AM,51.1,46.9,86,29.88,10.0,WNW,4.6,-,N/A,,Overcast,290,2012-12-12 13:56:00
6:56 AM,50.0,46.0,86,29.89,10.0,Calm,Calm,-,0.01,Rain,Light Rain,0,2012-12-12 14:56:00
7:56 AM,50.0,46.0,86,29.91,5.0,Calm,Calm,-,0.02,Rain,Light Rain,0,2012-12-12 15:56:00
8:56 AM,50.0,46.0,86,29.92,10.0,South,3.5,-,0.01,,Mostly Cloudy,190,2012-12-12 16:56:00
9:56 AM,53.1,44.1,71,29.94,10.0,Calm,Calm,-,N/A,,Scattered Clouds,0,2012-12-12 17:56:00
10:07 AM,50.0,41.0,71,29.93,10.0,NW,11.5,25.3,N/A,,Mostly Cloudy,310,2012-12-12 18:07:00
10:18 AM,48.2,41.0,76,29.93,2.5,West,6.9,16.1,0.03,Rain,Rain,280,2012-12-12 18:18:00
10:29 AM,50.0,41.0,71,29.93,10.0,WNW,4.6,-,0.03,Rain,Light Rain,290,2012-12-12 18:29:00
10:56 AM,52.0,44.1,74,29.93,10.0,West,8.1,-,0.03,,Scattered Clouds,260,2012-12-12 18:56:00
11:56 AM,54.0,43.0,66,29.91,10.0,NW,6.9,-,N/A,,Mostly Cloudy,310,2012-12-12 19:56:00
12:56 PM,55.0,39.9,57,29.90,10.0,NW,11.5,-,N/A,,Scattered Clouds,320,2012-12-12 20:56:00
1:56 PM,55.0,39.0,55,29.88,10.0,West,5.8,-,0.00,,Partly Cloudy,280,2012-12-12 21:56:00
2:56 PM,54.0,39.0,57,29.88,10.0,WNW,5.8,-,N/A,,Clear,290,2012-12-12 22:56:00
3:56 PM,53.1,37.9,57,29.88,10.0,West,6.9,-,N/A,,Clear,280,2012-12-12 23:56:00
4:56 PM,51.1,39.0,63,29.89,10.0,WNW,3.5,-,N/A,,Clear,290,2012-12-13 00:56:00
5:56 PM,50.0,39.9,68,29.89,10.0,West,4.6,-,N/A,,Clear,280,2012-12-13 01:56:00
6:56 PM,48.9,39.9,71,29.90,10.0,Calm,Calm,-,N/A,,Clear,0,2012-12-13 02:56:00
7:56 PM,48.0,39.9,74,29.91,10.0,SW,4.6,-,N/A,,Mostly Cloudy,220,2012-12-13 03:56:00
8:56 PM,46.9,39.9,77,29.91,10.0,Calm,Calm,-,N/A,,Scattered Clouds,0,2012-12-13 04:56:00
9:56 PM,46.9,39.9,77,29.91,10.0,Calm,Calm,-,N/A,,Clear,0,2012-12-13 05:56:00
10:56 PM,44.1,39.9,85,29.92,10.0,SE,3.5,-,N/A,,Clear,140,2012-12-13 06:56:00
11:56 PM,44.1,39.9,85,29.92,10.0,Calm,Calm,-,N/A,,Clear,0,2012-12-13 07:56:00